Regional Weather Roundup
Issued by NWS Little Rock, AR

Home | Current Version | Previous Version | Graphics & Text | Print | Product List | Glossary On
Versions: 1 2 3 4 5 6 7 8 9 10 11 12 13 14 15 16 17 18 19 20 21 22 23 24 25 26 27 28 29 30 31 32 33 34 35 36 37 38 39 40 41 42 43 44 45 46 47 48 49 50
815
ASUS44 KLZK 212005
RWRLZK

WEATHER ROUNDUP FOR ARKANSAS
NATIONAL WEATHER SERVICE LITTLE ROCK AR
200 PM CST TUE NOV 21 2017

NOTE: "FAIR" INDICATES FEW OR NO CLOUDS BELOW 12,000 FEET WITH NO
SIGNIFICANT WEATHER AND/OR OBSTRUCTIONS TO VISIBILITY.

ARZ001-003-010-029-212100-
NORTHWEST ARKANSAS

CITY           SKY/WX    TMP DP  RH WIND       PRES   REMARKS
FAYETTEVILLE   MOSUNNY   58  39  49 N7        29.99S
FORT SMITH     MOSUNNY   61  45  55 NW7       29.99S
HARRISON       CLOUDY    59  37  44 NW8G20    29.98R
BENTONVILLE    CLOUDY    56  38  50 NE8       30.02F
ROGERS         CLOUDY    55  36  48 N8        30.02R
SILOAM SPGS    CLOUDY    58  39  49 N9        30.02R
HIGHFILL       CLOUDY    57  38  48 N12       30.01S
SPRINGDALE     PTSUNNY   55  37  50 N12       30.01S
$$

ARZ004-005-016-212100-
NORTH CENTRAL ARKANSAS

CITY           SKY/WX    TMP DP  RH WIND       PRES   REMARKS
BATESVILLE     PTSUNNY   63  44  50 VRB3      29.98S
FLIPPIN        MOSUNNY   61  38  42 NW8       29.99R
MTN HOME       PTSUNNY   60  38  43 VRB5      29.98R
$$

ARZ040-041-212100-
WEST CENTRAL ARKANSAS

CITY           SKY/WX    TMP DP  RH WIND       PRES   REMARKS
MENA           PTSUNNY   63  52  67 W5        29.98F
MOUNT IDA      MOSUNNY   62  50  64 CALM      29.97R
$$

ARZ009-017-025-026-028-212100-
NORTHEAST ARKANSAS

CITY           SKY/WX    TMP DP  RH WIND       PRES   REMARKS
CORNING        FAIR      57  41  54 SW12      29.99S
JONESBORO      PTSUNNY   59  42  53 SW12      29.99S
NEWPORT        PTSUNNY   59  44  57 SW13      29.98F HAZE
WALNUT RIDGE     N/A     58  40  51 S6        29.99S
BLYTHEVILLE    CLOUDY    58  40  51 SW13      30.00F
NW BLYTHEVILLE PTSUNNY   59  39  47 S14G21    30.00
$$

ARZ022-023-033-042-044-212100-
CENTRAL ARKANSAS

CITY           SKY/WX    TMP DP  RH WIND       PRES   REMARKS
LITTLE ROCK    PTSUNNY   60  44  55 S6        30.00F
N LITTLE ROCK    N/A     60  45  58 S3        30.02F
JACKSONVILLE   MOSUNNY   62  44  53 S7        29.98F
SEARCY         MOSUNNY   61  45  55 S8        30.00
HOT SPRINGS    MOSUNNY   63  48  58 CALM      29.99F
RUSSELLVILLE     N/A     62  45  53 VRB3      29.97F
CLINTON        FAIR      61  45  55 SW7       29.97F
$$

ARZ036-212100-
EAST ARKANSAS

CITY           SKY/WX    TMP DP  RH WIND       PRES   REMARKS
WEST MEMPHIS   CLOUDY    58  39  49 S7        30.01F
$$

ARZ050-053-066-070-073-212100-
SOUTHWEST ARKANSAS

CITY           SKY/WX    TMP DP  RH WIND       PRES   REMARKS
ARKADELPHIA    FAIR      59  43  55 CALM      30.01F
CAMDEN         MOSUNNY   68  45  42 CALM      29.99S
TEXARKANA      PTSUNNY   64  52  64 VRB3      29.97S
EL DORADO      MOSUNNY   64  50  60 S5        29.99S
DE QUEEN       MOSUNNY   60  50  69 E3        29.97S
$$

ARZ056-057-069-212100-
SOUTHEAST ARKANSAS

CITY           SKY/WX    TMP DP  RH WIND       PRES   REMARKS
PINE BLUFF     PTSUNNY   63  46  54 S3        30.00F
STUTTGART      PTSUNNY   61  42  49 S7        30.01F
MONTICELLO     MOSUNNY   65  43  44 NE5       30.00F

$$






USA.gov is the U.S. government's official web portal to all federal, state and local government web resources and services.